Flag for U.S.A. Weather past 2 weeks in Modesto, California, U.S.A.

Now
58 °F

Overcast.


Feels Like: 58 °F
Forecast: 53 / 61 °F
Wind: No wind

Location: Modesto City-County-Sham Field

Current Time: Dec 20, 2014 at 4:42:00 PM

Latest Report: Dec 20, 2014 at 3:53 PM


Visibility: 9 mi

Pressure: 30.21 "Hg

Humidity: 81%

Dew point: 52 °F

Location of ModestoLocation

Historic Weather in Modesto — Graph

°F

Modesto temperature yesterday

Maximum temperature yesterday: 55 °F (at 11:53 AM)
Minimum temperature yesterday: 48 °F (at 2:53 AM)
Average temperature yesterday: 52 °F

Past Weeks' High & Low Weather Summary

 TemperatureHumidityPressure
High71 °F (Dec 6, 1:53 PM)100% (Dec 9, 3:53 AM)32.98 "Hg (Dec 9, 3:53 AM)
Low43 °F (Dec 14, 2:53 AM)54% (Dec 11, 9:53 AM)29.60 "Hg (Dec 11, 11:53 AM)
Average53 °F87%30.07 "Hg
* Reported Dec 5 2:53 PM — Dec 20 2:53 PM, Modesto, Weather by CustomWeather, © 2014

Note: Actual official high and low records may vary slightly from our data, if they occured in-between our weather recording intervals... More about our weather records

Advertising

Modesto weather history for previous 24 hours

 ConditionsComfort  
Time TempWeatherWind HumidityBarometerVisibility
2:53 PM
Dec 20
58 °FMore clouds than sun.No wind81%30.20 "Hg8 mi
1:53 PM58 °FOvercast.No wind81%30.21 "Hg8 mi
12:53 PM57 °FOvercast.6 mph83%30.20 "Hg8 mi
11:53 AM56 °FFog.6 mph87%30.22 "Hg6 mi
10:53 AM55 °FMostly cloudy.3 mph90%30.24 "Hg7 mi
10:00 AM54 °FFog.8 mph93%30.24 "Hg6 mi
8:53 AM53 °FLight rain. Fog.No wind93%30.21 "Hg2 mi
7:53 AM53 °FLight rain. Fog.No wind93%30.19 "Hg1 mi
6:53 AM53 °FOvercast.3 mph89%30.17 "Hg10 mi
5:53 AM53 °FOvercast.7 mph89%30.16 "Hg8 mi
5:04 AM53 °FMostly cloudy.N/A89%30.15 "Hg7 mi
4:53 AM53 °FLight rain. Fog.N/A89%30.16 "Hg6 mi
3:53 AM53 °FLight rain. Fog.7 mph93%30.14 "Hg4 mi
2:53 AM53 °FMostly cloudy.8 mph93%30.16 "Hg7 mi
1:53 AM53 °FLight rain. Fog.7 mph93%30.16 "Hg4 mi
12:53 AM53 °FLight rain. Fog.3 mph93%30.17 "Hg2 mi
11:53 PM
Dec 19
53 °FLight rain. Fog.3 mph93%30.17 "Hg4 mi
10:53 PM54 °FOvercast.5 mph90%30.18 "Hg8 mi
9:53 PM54 °FOvercast.6 mph86%30.18 "Hg9 mi
8:53 PM54 °FLight rain. Overcast.3 mph90%30.15 "Hg7 mi
7:53 PM53 °FLight rain. Mostly cloudy.5 mph93%30.15 "Hg7 mi
6:53 PM53 °FLight rain. Mostly cloudy.6 mph93%30.16 "Hg7 mi
5:53 PM53 °FRain. Fog.5 mph93%30.16 "Hg5 mi
4:53 PM53 °FPartly cloudy.5 mph93%30.15 "Hg10 mi
Weather by CustomWeather, © 2014

See weather overviewHow to use our weather pages